クリステンセン彗星

164P/Christensen (2011)

English version
Home page
Updated on June 11, 2016

---------------------------------------------------------------------

・ プロフィール

・ 写真集

・ 軌道要素

Epoch 2011 June 8.0 TT = JDT 2455720.5
T 2011 June 2.34880 TT                                  Kobayashi
q   1.6753326            (2000.0)            P               Q
n   0.14115384     Peri.  325.84932     +0.56283562     -0.77773816
a   3.6532067      Node    88.32772     +0.80704926     +0.44392426
e   0.5414077      Incl.   16.26087     +0.17857090     +0.44503326
P   6.98
From 888 observations 1998 Jan. 24-2012 May 18, mean residual 0".6.
     Nongravitational parameters A1 = -0.17, A2 = +0.0103.

・ 星図

・ 光度変化

        m1 = 13.0 + 5 logΔ + 10.0 log r(t - 150)

        ※ 灰色の曲線は、m1 = 11.5 + 5 logΔ + 10.0 log r の光度曲線です。

---------------------------------------------------------------------

軌道要素はM.P.E.C. 2015-M77に掲載されたものです。
星図はステラナビゲータ Ver.8 (アストロアーツ) で作成したものです。
光度グラフはComet for Windowsで作成したものです。

---------------------------------------------------------------------

Copyright(C) Seiichi Yoshida (comet@aerith.net). All rights reserved.